Argentia, Canada

9:37 AM NDT on September 26, 2017 (GMT -0230)
Argentia

Weather History for CWAR - September, 2012

Change the Weather History Date:

Friday, September 28, 2012

  Actual Average Record
Temperature  
Mean Temperature 56 °F -  
Max Temperature 59 °F - - ()
Min Temperature 52 °F - - ()
Degree Days  
Heating Degree Days 10    
Growing Degree Days 6 (Base 50)    
Moisture  
Dew Point 45 °F    
Average Humidity 65    
Maximum Humidity 73    
Minimum Humidity 48    
Precipitation  
Precipitation 0.00 in - - ()
Sea Level Pressure  
Sea Level Pressure 30.07 in    
Wind  
Wind Speed 16 mph ()    
Max Wind Speed 23 mph    
Max Gust Speed 28 mph    
T = Trace of Precipitation, MM = Missing Value Source: Averaged Metar Reports

Daily Weather History Graph

Daily Weather History Graph

Search for Another Location

Airport or City:

Trip Planner

Search our weather history database for the weather conditions in past years. The results will help you decide how hot, cold, wet, or windy it might be!

Date:

Astronomy

Sep. 28, 2012 Rise Set
Actual Time 7:01 AM NDT 6:50 PM NDT
Civil Twilight 6:30 AM NDT 7:21 PM NDT
Nautical Twilight 5:55 AM NDT 7:56 PM NDT
Astronomical Twilight 5:18 AM NDT 8:33 PM NDT
Moon 5:51 PM NDT (9/28) 5:22 AM NDT (9/28)
Length of Visible Light 12h 50m
Length of Day
11h 49m
Waxing Gibbous, 98% of the Moon is Illuminated
Sep 28
Waxing Gibbous
Sep 30
Full
Oct 8
Last Quarter
Oct 15
New
Oct 22
First Quarter

Hourly Weather History & Observations

Time (NDT) Temp. Dew Point Humidity Pressure Visibility Wind Dir Wind Speed Gust Speed Precip Events Conditions
12:30 AM 54 °F 46 °F 65% 29.93 in - NNW 18.4 mph - -  
12:30 AM 54.5 °F 45.5 °F 72% 29.93 in - NNW 18.4 mph - N/A   Unknown
1:30 AM 53.4 °F 44.2 °F 71% 29.95 in - NW 18.4 mph - N/A   Unknown
2:30 AM 52.5 °F 42.8 °F 70% 29.96 in - NW 12.7 mph - N/A   Unknown
3:30 AM 53 °F 43 °F 59% 29.97 in - WNW 13.8 mph - -  
3:30 AM 52.5 °F 42.8 °F 70% 29.97 in - WNW 13.8 mph - N/A   Unknown
4:30 AM 52.7 °F 44.2 °F 73% 29.98 in - WNW 17.3 mph - N/A   Unknown
5:30 AM 53.1 °F 44.2 °F 72% 29.99 in - WNW 18.4 mph 25.3 mph N/A   Unknown
6:30 AM 53 °F 43 °F 61% 30.01 in - West 16.1 mph - -  
6:30 AM 53.4 °F 43.3 °F 69% 30.01 in - West 16.1 mph 21.9 mph N/A   Unknown
7:30 AM 53.4 °F 44.1 °F 71% 30.03 in - West 16.1 mph 21.9 mph N/A   Unknown
8:30 AM 54.7 °F 44.4 °F 68% 30.04 in - West 18.4 mph 25.3 mph N/A   Unknown
9:30 AM 55 °F 44 °F 56% 30.06 in - West 20.7 mph - -  
9:30 AM 55.0 °F 43.9 °F 66% 30.06 in - West 20.7 mph 27.6 mph N/A   Unknown
10:30 AM 55.9 °F 43.2 °F 62% 30.07 in - West 17.3 mph 24.2 mph N/A   Unknown
11:30 AM 56.5 °F 42.4 °F 59% 30.08 in - West 19.6 mph 27.6 mph N/A   Unknown
12:30 PM 57 °F 43 °F 48% 30.08 in - West 20.7 mph - -  
12:30 PM 57.0 °F 42.8 °F 59% 30.08 in - West 20.7 mph - N/A   Unknown
1:30 PM 57.7 °F 44.1 °F 60% 30.08 in - West 23.0 mph - N/A   Unknown
2:30 PM 58.1 °F 44.6 °F 61% 30.08 in - West 23.0 mph - N/A   Unknown
3:30 PM 59 °F 47 °F 56% 30.09 in - West 20.7 mph - -  
3:30 PM 58.6 °F 47.3 °F 66% 30.09 in - West 20.7 mph - N/A   Unknown
4:30 PM 58.8 °F 47.7 °F 66% 30.10 in - West 18.4 mph - N/A   Unknown
5:30 PM 58.6 °F 48.6 °F 69% 30.11 in - West 18.4 mph - N/A   Unknown
6:30 PM 58 °F 48 °F 61% 30.12 in - West 17.3 mph - -  
6:30 PM 58.1 °F 48.0 °F 69% 30.12 in - West 17.3 mph - N/A   Unknown
7:30 PM 57.7 °F 47.5 °F 69% 30.14 in - West 16.1 mph 21.9 mph N/A   Unknown
8:30 PM 57.6 °F 48.2 °F 71% 30.17 in - West 12.7 mph - N/A   Unknown
9:30 PM 57 °F 47 °F 62% 30.19 in - WNW 10.4 mph - -  
9:30 PM 57.0 °F 47.5 °F 70% 30.19 in - WNW 10.4 mph - N/A   Unknown
10:30 PM 54.5 °F 39.6 °F 57% 30.22 in - North 12.7 mph - N/A   Unknown
11:30 PM 53.1 °F 40.5 °F 62% 30.24 in - North 10.4 mph - N/A   Unknown